SCP
0 0 0 0 0 0 1 0 0 0 0 0 0 0 0 0 0 0 1 1 1 1 1 1 1 1 2 2 2 1 1 1 2 2 2 2 2 2 1 1 1 1 1
0 0 0 0 0 0 1 0 0 0 0 0 0 0 0 0 0 0 1 1 1 1 2 2 2 2 2 2 2 2 1 1 1 2 2 2 2 2 1 1 1 1 1
0 0 0 0 0 0 1 0 0 0 0 0 0 0 0 0 0 0 1 1 1 2 2 2 2 2 2 2 2 2 2 1 1 1 1 2 1 1 1 1 1 1 1
0 0 0 0 0 0 1 1 1 0 0 0 0 0 0 0 1 1 1 1 1 2 2 2 2 2 2 2 2 2 2 1 1 1 1 1 1 1 1 1 1 1 0
1 1 1 1 1 1 1 1 1 1 0 0 0 0 0 1 1 1 1 1 1 1 2 2 2 2 2 2 1 1 1 1 1 1 1 1 1 1 1 1 1 1 0
1 1 1 1 1 1 1 1 1 1 0 0 0 0 0 1 1 1 0 0 1 1 1 1 2 2 2 2 1 1 1 1 1 1 1 1 1 1 1 1 1 1 1
1 1 1 1 1 1 1 1 1 1 1 1 1 1 0 0 0 0 0 0 0 0 1 1 1 1 1 1 1 1 1 1 1 1 1 1 1 1 1 1 1 1 1
1 1 1 1 1 1 1 1 1 1 1 1 1 1 1 0 0 0 0 0 0 0 0 0 1 1 1 1 1 1 1 1 1 1 1 1 1 1 1 1 1 1 1
1 1 1 1 1 1 1 1 1 1 1 1 1 1 1 1 0 0 0 0 0 0 0 0 0 0 0 0 1 1 1 1 1 1 1 1 1 1 1 1 1 1 1
1 1 1 1 1 1 1 1 1 1 1 1 1 1 1 1 1 0 0 0 0 0 0 0 0 0 0 0 0 0 0 1 1 1 1 1 1 1 1 1 1 1 1
1 1 1 1 1 1 1 1 1 1 1 1 1 1 1 1 1 0 0 0 0 0 0 0 0 0 0 0 0 0 0 0 0 1 1 1 1 1 1 1 1 1 1
1 1 1 1 1 1 1 1 1 1 1 1 1 1 1 1 0 0 0 0 0 0 0 0 0 0 0 0 0 0 0 0 0 0 0 1 1 1 1 1 1 1 1
1 1 1 1 1 1 1 1 1 1 1 1 1 1 1 0 0 0 0 1 1 0 0 0 0 0 0 0 0 0 0 0 0 0 0 0 0 1 1 1 1 1 1
2 2 2 2 1 1 1 1 1 1 1 1 1 1 1 1 1 1 1 1 1 1 0 0 0 1 1 1 1 0 0 0 0 0 0 0 0 0 0 1 1 1 1
2 2 2 2 2 1 1 1 2 1 1 1 1 1 1 1 1 1 1 1 1 1 1 1 1 1 1 1 1 1 1 0 0 0 0 0 0 0 0 0 0 0 0
3 2 2 2 2 1 2 2 2 2 1 1 1 1 1 1 1 1 1 2 1 1 1 1 1 1 1 1 1 1 1 1 0 0 0 0 0 0 0 0 0 0 0
3 3 2 2 2 1 1 2 2 2 2 1 1 1 1 1 1 1 1 1 1 1 1 1 1 1 1 1 1 1 1 1 0 0 0 0 0 0 0 0 0 0 0
4 3 2 2 1 1 1 1 2 2 2 1 1 1 1 1 1 1 1 1 1 1 1 1 1 1 1 1 1 1 1 1 0 0 0 0 0 0 0 0 0 0 0
4 3 2 1 1 1 1 1 1 1 1 1 1 1 2 1 1 1 1 1 1 1 1 1 1 1 1 1 1 1 0 0 0 0 0 0 0 0 0 0 0 0 0
3 2 2 1 1 1 2 2 2 1 1 1 1 1 1 1 1 1 1 1 1 1 1 1 1 1 1 1 1 1 0 0 0 0 0 0 0 0 0 0 0 0 0
2 2 2 1 2 2 2 2 2 2 2 1 1 1 1 1 1 1 1 1 1 1 1 1 1 1 1 1 1 1 1 0 0 0 0 0 0 0 0 0 0 0 0
2 2 2 2 2 2 2 1 2 2 2 2 1 1 1 1 1 1 1 1 1 1 1 1 1 1 1 1 1 1 1 1 1 1 0 0 0 0 0 0 0 0 0
3 3 3 3 3 3 2 1 1 2 2 2 2 2 2 2 1 1 1 0 1 1 1 1 1 1 1 1 1 1 1 1 1 1 1 0 0 0 0 0 0 0 0
4 4 4 4 3 3 2 1 1 1 2 2 2 2 2 2 1 1 1 1 1 1 1 1 1 1 1 1 1 2 1 1 1 1 1 1 0 1 1 0 0 0 0
5 5 5 4 4 3 2 1 1 1 2 2 2 2 1 1 1 1 1 1 1 1 1 1 1 1 1 1 1 1 1 1 1 1 1 1 1 1 1 1 1 0 0
5 5 5 4 4 3 2 1 1 1 2 3 2 2 1 1 1 0 1 1 1 1 1 1 1 1 1 1 1 1 1 1 1 1 1 1 1 2 2 1 1 0 0
Wind_Speed
1 1 1 1 1 1 1 2 2 1 1 1 1 2 2 2 3 3 2 5 6 6 7 8 8 8 8 8 8 8 8 9 8 8 8 9 9 9 8 8 8 8 7
1 1 1 1 1 1 1 1 1 1 1 1 1 0 1 2 3 3 3 3 5 6 7 8 8 8 9 9 9 9 9 9 8 8 9 9 9 9 9 9 9 9 8
1 1 1 1 1 1 1 1 1 1 1 1 1 0 1 1 2 3 3 2 3 5 7 7 8 8 8 9 8 8 8 8 8 8 9 9 9 9 9 10 10 9 9
2 2 1 0 0 1 1 1 1 1 1 1 0 0 0 1 2 3 2 2 2 3 4 7 7 8 8 8 9 8 8 9 9 9 9 9 9 9 10 10 11 10 10
2 2 1 1 1 1 1 0 1 1 1 1 0 0 0 1 2 2 3 3 3 2 2 4 6 7 8 8 9 9 10 9 9 9 9 9 9 9 9 9 9 10 11
2 2 1 1 1 1 1 1 1 1 1 0 1 1 1 0 1 1 2 2 2 3 3 3 3 4 6 7 8 8 9 9 9 10 10 10 10 10 10 10 10 10 10
2 2 1 1 1 1 1 1 1 1 1 1 1 2 2 1 0 1 1 1 2 3 3 3 3 3 3 5 6 7 9 10 9 10 10 10 11 10 10 11 11 11 11
2 2 2 1 1 1 1 1 1 1 0 1 1 1 1 2 2 1 0 1 2 2 2 3 3 3 3 2 2 5 8 9 10 10 10 10 10 10 10 12 12 11 11
2 2 3 2 2 2 2 2 2 2 1 0 1 2 2 1 1 1 1 1 0 1 1 2 3 3 4 3 2 3 5 5 7 8 9 9 9 8 8 9 10 10 10
2 2 3 3 2 2 2 2 2 2 2 1 1 1 1 2 1 1 1 1 1 0 0 1 1 2 2 2 2 1 2 3 3 5 6 6 7 7 7 8 9 9 8
2 2 2 2 2 2 2 2 2 2 2 2 2 1 1 1 1 2 1 1 1 1 1 0 1 1 1 1 1 1 1 1 2 3 4 4 4 5 6 6 7 7 7
1 2 2 2 2 2 2 2 2 2 2 2 2 1 2 1 2 2 2 1 1 1 1 1 1 1 0 1 1 2 1 1 1 1 1 1 2 2 4 4 5 6 6
2 2 2 2 2 2 2 2 2 2 2 2 2 1 1 1 1 2 2 1 1 1 0 1 1 1 1 0 1 2 2 2 1 1 1 1 1 1 1 1 2 3 4
2 2 2 2 2 2 2 2 1 1 1 1 1 1 1 1 1 2 2 2 1 0 0 1 1 1 1 0 1 1 1 2 2 1 1 1 1 2 2 1 1 0 1
2 2 2 2 1 1 1 2 1 1 1 1 1 1 1 1 1 1 2 2 2 2 1 0 0 1 1 1 2 1 1 2 2 2 2 2 2 2 2 2 2 1 0
2 2 1 1 1 1 1 1 1 1 1 1 1 1 0 1 1 0 1 1 2 2 1 0 0 1 1 2 3 2 2 3 4 3 3 3 3 3 3 3 2 2 1
2 2 2 1 1 1 1 2 2 2 2 1 1 1 0 1 0 0 0 1 1 2 2 0 0 1 2 2 2 2 2 1 2 3 4 4 4 5 5 4 3 3 3
1 2 2 2 1 1 2 2 2 2 2 1 1 1 1 0 1 1 1 1 1 1 2 1 1 1 1 1 2 2 3 3 2 5 6 6 6 6 6 6 6 5 5
2 2 2 2 1 2 2 2 2 2 2 1 1 1 0 1 1 1 1 1 1 2 2 2 1 1 1 1 2 2 3 3 3 4 6 7 7 7 6 6 6 6 5
2 2 2 1 2 2 1 1 1 2 2 1 1 1 1 1 1 1 1 1 2 3 2 2 2 1 1 1 1 1 2 2 2 3 4 4 5 6 6 5 5 5 5
2 2 2 2 2 2 1 1 2 3 3 2 2 2 2 3 3 2 2 2 3 3 3 2 2 1 1 1 0 0 1 1 2 2 2 2 2 2 3 3 3 4 4
2 2 2 2 2 2 3 4 4 4 4 3 2 2 3 3 4 4 5 4 4 3 3 2 1 1 0 1 0 1 1 0 1 1 1 2 1 2 2 1 3 3 3
2 2 3 3 3 3 4 5 6 4 3 2 2 2 2 3 3 3 5 6 5 5 3 2 2 1 1 2 2 1 1 1 0 1 1 1 2 2 2 2 3 3 4
2 2 2 2 3 3 5 5 6 4 3 3 2 2 2 2 2 3 4 5 4 4 3 2 1 0 1 1 2 2 2 1 1 1 1 1 2 1 2 2 3 3 3
3 2 2 3 3 3 4 5 5 4 3 3 3 3 2 2 3 4 4 4 4 3 5 6 4 4 4 4 3 3 2 1 1 1 1 0 1 1 1 1 2 4 4
3 3 3 3 3 3 5 6 5 3 4 3 3 3 5 4 4 4 4 4 3 2 2 4 5 5 4 4 4 2 2 1 0 0 0 0 0 1 1 1 1 2 2
Wind_Direction
67 55 47 48 44 53 54 41 49 56 63 68 107 141 165 174 177 180 187 193 191 194 191 189 187 185 187 190 191 191 191 190 189 190 194 197 196 197 199 201 201 202 202
101 76 45 42 37 47 66 67 49 45 35 65 68 147 182 183 184 185 185 197 199 201 203 201 196 195 198 199 200 200 202 202 200 199 204 208 207 206 207 209 208 208 208
132 118 69 35 18 57 71 69 45 47 50 64 64 76 181 183 181 190 188 192 206 214 213 210 207 203 204 202 201 202 203 207 207 208 211 214 215 214 215 216 216 214 214
154 144 148 217 16 72 78 71 55 50 42 53 53 6 147 171 189 190 192 200 205 217 220 216 216 215 215 213 211 211 212 213 214 215 217 219 221 220 221 221 221 220 218
163 161 171 194 135 93 81 68 66 90 44 8 356 41 114 193 204 199 201 210 212 216 223 227 224 223 222 223 224 223 223 222 219 220 222 226 228 226 223 224 224 223 224
165 159 162 155 129 114 97 85 70 73 100 18 16 38 23 251 197 196 207 208 212 221 226 235 237 243 240 239 236 234 232 230 225 226 227 229 232 231 226 225 226 225 227
181 163 163 128 125 145 179 152 117 65 48 83 78 28 14 26 350 239 213 211 225 227 226 230 232 237 245 244 245 243 243 242 234 231 231 232 234 234 229 226 226 227 228
197 185 177 176 166 156 146 143 135 115 59 109 130 107 11 360 6 5 247 212 223 213 227 235 228 228 238 238 248 252 253 253 244 237 234 234 236 237 235 230 228 229 229
197 196 193 191 190 176 186 192 169 168 183 168 128 141 149 225 310 356 21 35 179 197 236 250 238 236 237 238 243 250 256 259 253 246 241 235 234 235 237 235 231 230 232
216 206 199 194 195 188 195 204 175 171 166 184 179 167 174 169 162 309 358 21 35 42 242 261 266 251 242 239 249 269 264 263 270 269 258 254 242 232 230 233 231 227 224
249 226 208 198 198 200 203 195 167 174 174 177 178 167 157 138 157 179 261 334 22 9 357 324 302 286 269 246 238 271 292 268 272 274 277 277 265 238 227 228 229 228 227
267 248 217 205 203 202 205 202 188 183 188 185 179 167 162 170 190 181 207 249 295 332 9 28 354 316 325 341 19 49 51 35 351 316 304 308 296 263 240 233 228 225 224
254 247 224 209 211 211 207 198 191 193 186 179 188 194 195 208 182 171 171 206 226 279 355 38 19 353 1 10 18 47 41 38 29 34 46 51 33 8 342 266 250 236 232
244 250 225 217 220 219 209 186 184 203 167 163 197 202 211 233 200 186 180 173 189 247 26 330 22 25 15 29 41 53 39 49 47 42 54 67 55 39 29 10 350 283 238
236 237 229 234 236 212 194 170 157 197 148 156 191 207 246 269 218 211 197 180 176 189 229 314 14 18 20 68 35 38 35 54 63 48 44 46 49 45 41 38 33 33 217
221 215 227 228 213 177 171 151 147 159 141 145 160 137 287 301 300 228 199 192 182 172 184 180 322 355 14 53 45 32 31 47 56 55 52 52 60 61 54 45 38 46 61
212 207 204 194 171 146 132 137 150 145 143 125 108 124 282 339 358 348 124 151 154 148 166 197 48 29 45 42 34 37 40 35 36 47 58 64 64 60 56 52 48 48 50
192 184 175 168 157 142 133 141 159 165 168 170 178 172 258 70 60 39 93 120 138 148 154 164 76 39 42 41 45 49 51 55 51 54 62 64 63 58 56 54 50 46 41
144 140 152 163 163 147 140 154 170 172 177 192 183 165 184 119 99 83 100 113 116 122 133 143 116 59 51 45 45 51 55 47 57 57 59 58 58 57 54 55 53 50 45
136 131 145 155 144 136 133 145 159 154 158 152 112 105 91 130 167 147 125 130 119 110 113 124 113 75 53 47 58 54 46 35 38 36 44 47 48 51 45 47 50 49 44
139 128 124 106 104 112 103 112 127 129 126 105 68 52 57 68 81 93 105 123 123 119 122 119 114 89 65 92 90 5 63 39 34 21 25 31 27 30 31 30 36 38 38
94 100 104 99 84 72 71 90 100 103 106 103 85 55 54 55 59 66 80 92 110 127 138 133 128 141 193 202 152 152 136 46 9 9 9 18 33 21 13 26 32 39 42
102 101 96 91 85 69 75 84 87 96 96 93 91 77 66 59 64 76 74 69 63 68 101 150 147 191 203 207 166 130 120 75 325 339 359 355 5 12 7 27 35 39 47
112 106 100 102 97 77 81 96 95 92 87 78 75 85 82 50 58 89 88 73 61 49 50 84 128 228 217 186 169 158 148 110 56 44 32 3 357 349 354 6 26 37 38
113 111 99 100 98 72 69 92 99 97 91 72 60 61 71 63 59 84 95 90 69 45 53 64 62 57 62 76 103 107 103 100 35 13 27 333 323 322 325 343 15 24 25
125 109 90 81 84 70 61 77 98 103 98 84 66 55 62 74 75 80 98 106 93 53 52 50 47 42 49 59 68 98 137 136 82 324 9 274 279 307 307 329 342 354 357